DW7601 San Vito IT current weather conditions

sailwx.info

Wind from 008

Air temperature 21.7° C
Dewpoint 17.2° C

Last reported at 2014-Sep-30 20:40 UTC.
Time now 2014-Sep-30 22:01 UTC

Location: N 39°27' E 009°32'.
View on Google Maps.

See reports from other nearby stations

  
Tides and Currents Weather Stations Pressure Air Temp Water Temp Dewpoint Dewpoint Depression Visibility Wind Speed Wind Dir Waves Ship Positions
date/time (UTC)wind fromknots sea level pressurealtimeterstation pressurevisibilityair tempwater tempwave heightnotes
2014-Sep-30 20:40 008 21.7
2014-Sep-30 20:30 270 21.7
2014-Sep-30 20:20 029 21.7
2014-Sep-30 20:10 338 21.7
2014-Sep-30 20:00 137 21.7
2014-Sep-30 19:50 023 22.2
2014-Sep-30 19:40 301 22.2
2014-Sep-30 19:30 067 22.2
2014-Sep-30 19:20 336 22.8
2014-Sep-30 19:10 161 22.8
2014-Sep-30 19:00 237 22.8
2014-Sep-30 18:50 206 22.8
2014-Sep-30 18:40 154 22.8
2014-Sep-30 18:30 202 23.3
2014-Sep-30 18:20 170 23.3
2014-Sep-30 18:10 164 0 gusting 1 23.3
2014-Sep-30 18:00 191 0 gusting 1 23.3
2014-Sep-30 17:50 112 0 gusting 1 23.3
2014-Sep-30 17:40 128 0 gusting 0 23.3
2014-Sep-30 17:30 180 0 gusting 1 23.9
2014-Sep-30 17:20 119 0 gusting 4 23.9
2014-Sep-30 17:10 119 1 gusting 4 24.4
2014-Sep-30 17:00 122 1 gusting 2 24.4
2014-Sep-30 16:50 090 1 gusting 4 24.4
2014-Sep-30 16:40 180 1 gusting 4 25.0
2014-Sep-30 16:30 103 1 gusting 4 25.6
2014-Sep-30 16:20 202 1 gusting 4 25.6
2014-Sep-30 16:10 178 1 gusting 5 26.1
2014-Sep-30 16:00 129 1 gusting 5 26.1
2014-Sep-30 15:50 159 1 gusting 4 26.1
2014-Sep-30 15:40 087 1 gusting 4 26.7
2014-Sep-30 15:30 186 1 gusting 4 27.2
2014-Sep-30 15:20 135 2 gusting 5 27.2
2014-Sep-30 15:10 125 1 gusting 4 26.7
2014-Sep-30 15:00 187 1 gusting 4 26.1
2014-Sep-30 14:50 092 1 gusting 4 26.1
2014-Sep-30 14:40 135 2 gusting 5 26.1
2014-Sep-30 14:30 134 1 gusting 5 26.7
2014-Sep-30 14:20 270 1 gusting 5 26.7
2014-Sep-30 14:10 173 1 gusting 6 26.7
2014-Sep-30 14:00 127 2 gusting 5 26.7
2014-Sep-30 13:50 171 1 gusting 4 27.2
2014-Sep-30 13:40 075 2 gusting 5 27.2
2014-Sep-30 13:30 132 4 gusting 6 27.8
2014-Sep-30 13:20 096 4 gusting 6 28.3
2014-Sep-30 13:10 118 4 gusting 7 27.8
2014-Sep-30 13:00 085 4 gusting 6 27.2
2014-Sep-30 12:50 106 4 gusting 7 26.7
2014-Sep-30 12:40 112 5 gusting 8 27.2
2014-Sep-30 12:30 129 4 gusting 7 27.8
2014-Sep-30 12:20 104 3 gusting 6 27.8
2014-Sep-30 12:10 103 4 gusting 7 28.3
2014-Sep-30 12:00 112 4 gusting 6 28.9
2014-Sep-30 11:50 180 4 gusting 6 29.4
2014-Sep-30 11:40 157 2 gusting 6 30.6
2014-Sep-30 11:30 135 4 gusting 6 30.0
2014-Sep-30 11:20 112 4 gusting 6 30.0
2014-Sep-30 11:10 167 4 gusting 6 30.0
2014-Sep-30 11:00 172 4 gusting 6 30.0
2014-Sep-30 10:50 196 4 gusting 6 30.0
2014-Sep-30 10:40 099 2 gusting 6 29.4
2014-Sep-30 10:30 003 2 gusting 5 29.4
2014-Sep-30 10:20 090 2 gusting 6 28.9
2014-Sep-30 10:10 135 2 gusting 6 26.7
2014-Sep-30 10:00 171 2 gusting 6 26.7
2014-Sep-30 09:50 135 2 gusting 6 26.1
2014-Sep-30 09:40 248 2 gusting 5 26.1
2014-Sep-30 09:30 154 1 gusting 5 26.1
2014-Sep-30 09:20 154 2 gusting 5 26.1
2014-Sep-30 09:10 112 2 gusting 4 26.1
2014-Sep-30 09:00 218 2 gusting 4 26.1
2014-Sep-30 08:50 180 1 gusting 2 26.7
2014-Sep-30 08:40 141 2 gusting 5 27.2
2014-Sep-30 08:30 159 2 gusting 4 27.2
2014-Sep-30 08:20 229 2 gusting 6 27.2
2014-Sep-30 08:10 153 2 gusting 6 26.7
2014-Sep-30 08:00 233 2 gusting 5 25.6
2014-Sep-30 07:50 152 2 gusting 5 25.0
2014-Sep-30 07:40 164 2 gusting 5 25.0
2014-Sep-30 07:30 153 2 gusting 6 24.4
2014-Sep-30 07:20 135 1 gusting 6 24.4
2014-Sep-30 07:10 216 1 gusting 4 23.9
2014-Sep-30 07:00 150 1 gusting 2 23.9
2014-Sep-30 06:50 165 1 gusting 4 23.3
2014-Sep-30 06:40 142 2 gusting 6 22.8
2014-Sep-30 06:30 211 1 gusting 6 22.8
2014-Sep-30 06:20 202 0 gusting 2 22.2
2014-Sep-30 06:10 174 0 gusting 2 22.2
2014-Sep-30 06:00 192 0 gusting 4 21.7
2014-Sep-30 05:50 075 0 gusting 1 21.1
2014-Sep-30 04:50 062 20.6
2014-Sep-30 04:40 085 20.6
2014-Sep-30 04:30 047 20.6
2014-Sep-30 04:20 022 20.6
2014-Sep-30 04:10 022 0 gusting 1 20.6
2014-Sep-30 04:00 059 0 gusting 1 20.6
2014-Sep-30 03:50 025 20.6
2014-Sep-30 03:40 126 20.0
2014-Sep-30 03:30 019 20.0
2014-Sep-30 03:20 068 20.0
2014-Sep-30 03:10 022 20.0
2014-Sep-30 03:00 059 20.0
2014-Sep-30 02:50 042 20.0
2014-Sep-30 02:40 068 20.0
2014-Sep-30 02:30 047 20.0
2014-Sep-30 02:20 096 20.0
2014-Sep-30 02:10 017 20.0
2014-Sep-30 02:00 183 19.4
2014-Sep-30 01:50 180 19.4
2014-Sep-30 01:40 298 19.4
2014-Sep-30 01:20 045 19.4
2014-Sep-30 01:10 180 19.4
2014-Sep-30 01:00 231 19.4
2014-Sep-30 00:50 19.4
2014-Sep-30 00:40 022 20.0
2014-Sep-30 00:30 045 20.0
2014-Sep-30 00:20 180 20.0
2014-Sep-30 00:10 094 20.0
2014-Sep-30 00:00 341 20.0
2014-Sep-29 23:50 028 20.0
2014-Sep-29 23:40 288 20.0
2014-Sep-29 23:30 268 20.0
2014-Sep-29 23:20 063 20.0
2014-Sep-29 23:10 045 20.0
2014-Sep-29 23:00 256 20.0
2014-Sep-29 22:50 171 20.0
2014-Sep-29 22:40 076 20.0
2014-Sep-29 22:30 245 20.0
2014-Sep-29 22:20 202 20.0
2014-Sep-29 22:10 225 20.0
2014-Sep-29 22:00 061 20.0
2014-Sep-29 21:50 104 20.0
2014-Sep-29 21:40 048 20.6
2014-Sep-29 21:30 006 20.6
2014-Sep-29 21:20 245 20.6
2014-Sep-29 21:10 001 20.6
2014-Sep-29 21:00 188 20.6
2014-Sep-29 20:50 019 20.6
2014-Sep-29 20:40 062 20.6
2014-Sep-29 20:30 183 20.6
2014-Sep-29 20:20 028 20.6
2014-Sep-29 20:10 003 21.1
2014-Sep-29 20:00 022 21.1
2014-Sep-29 19:50 089 21.1
2014-Sep-29 19:40 068 21.1
2014-Sep-29 19:30 202 21.1
2014-Sep-29 19:20 248 0 gusting 0 21.1
2014-Sep-29 19:10 221 21.7
2014-Sep-29 19:00 338 21.7
2014-Sep-29 18:40 251 0 gusting 1 22.2
2014-Sep-29 18:30 231 0 gusting 1 22.2
2014-Sep-29 18:00 225 22.2
2014-Sep-29 17:50 202 22.2
2014-Sep-29 17:40 090 22.8
2014-Sep-29 17:30 071 22.8
2014-Sep-29 17:20 096 22.8
2014-Sep-29 17:00 128 0 gusting 2 23.3
2014-Sep-29 16:50 093 0 gusting 2 23.9
2014-Sep-29 16:40 135 0 gusting 2 24.4
2014-Sep-29 16:30 090 0 gusting 4 24.4
2014-Sep-29 16:20 108 1 gusting 5 25.0
2014-Sep-29 16:10 138 1 gusting 5 25.6
2014-Sep-29 16:00 121 1 gusting 2 26.1
2014-Sep-29 15:50 126 1 gusting 4 26.7
2014-Sep-29 15:40 129 2 gusting 5 27.2
2014-Sep-29 15:30 115 2 gusting 5 27.2
2014-Sep-29 15:20 115 1 gusting 4 27.8
2014-Sep-29 15:10 128 1 gusting 2 27.2
2014-Sep-29 15:00 127 2 gusting 5 27.2
2014-Sep-29 14:50 177 1 gusting 5 27.2
2014-Sep-29 14:30 135 2 gusting 6 27.8
2014-Sep-29 14:20 134 1 gusting 7 27.8
2014-Sep-29 14:10 068 2 gusting 7 28.3
2014-Sep-29 14:00 112 2 gusting 6 28.3
2014-Sep-29 13:50 090 2 gusting 6 28.9
2014-Sep-29 13:40 090 1 gusting 5 28.9
2014-Sep-29 13:30 194 2 gusting 5 28.9
2014-Sep-29 13:20 090 2 gusting 6 28.9
2014-Sep-29 13:10 143 2 gusting 6 29.4
2014-Sep-29 12:50 099 2 gusting 6 29.4
2014-Sep-29 12:40 050 1 gusting 6 29.4
2014-Sep-29 12:30 087 2 gusting 5 29.4
2014-Sep-29 12:20 095 2 gusting 6 29.4
2014-Sep-29 12:10 132 1 gusting 4 28.9
2014-Sep-29 12:00 131 2 gusting 4 29.4
2014-Sep-29 11:50 099 1 gusting 4 28.9
2014-Sep-29 11:40 082 2 gusting 6 28.9
2014-Sep-29 11:30 107 2 gusting 6 28.9
2014-Sep-29 11:20 090 4 gusting 6 28.3
2014-Sep-29 11:10 094 4 gusting 6 28.3
2014-Sep-29 11:00 094 2 gusting 6 28.3
2014-Sep-29 10:50 093 1 gusting 4 28.3
2014-Sep-29 10:40 086 2 gusting 6 27.8
2014-Sep-29 10:20 308 2 gusting 4 27.2
2014-Sep-29 10:10 112 2 gusting 2 26.7
2014-Sep-29 10:00 086 1 gusting 6 26.7
2014-Sep-29 09:50 008 2 gusting 5 26.7
2014-Sep-29 09:40 099 2 gusting 5 26.7
2014-Sep-29 09:20 071 4 gusting 6 26.7
2014-Sep-29 09:10 199 4 gusting 6 26.7
2014-Sep-29 09:00 135 2 gusting 6 26.7
2014-Sep-29 08:40 111 2 gusting 7 25.6
2014-Sep-29 08:10 112 0 gusting 1 23.9
2014-Sep-29 08:00 285 0 gusting 1 22.8
2014-Sep-29 07:50 262 21.7
2014-Sep-29 07:40 274 20.0
2014-Sep-29 07:30 303 18.9
2014-Sep-29 07:20 062 18.3
2014-Sep-29 07:10 068 0 gusting 0 18.3
2014-Sep-29 07:00 025 17.8
2014-Sep-29 06:40 101 17.8
2014-Sep-29 06:30 292 17.8
2014-Sep-29 06:20 171 17.2
2014-Sep-29 06:10 071 17.2
2014-Sep-29 06:00 097 16.7
2014-Sep-29 05:50 237 0 gusting 1 16.7
2014-Sep-29 04:30 125 16.7
2014-Sep-29 04:20 222 0 gusting 1 16.7
2014-Sep-29 04:10 158 16.7
2014-Sep-29 04:00 112 16.7
2014-Sep-29 03:50 270 16.7
2014-Sep-29 03:40 202 16.7
2014-Sep-29 03:30 109 16.7
2014-Sep-29 03:20 117 16.7
2014-Sep-29 03:00 210 16.7
2014-Sep-29 02:40 087 17.2
2014-Sep-29 02:30 244 17.2
2014-Sep-29 02:20 090 17.2
2014-Sep-29 02:00 228 17.8
2014-Sep-29 01:50 180 17.8
2014-Sep-29 01:20 255 17.8
2014-Sep-29 01:10 068 18.3
2014-Sep-29 01:00 047 18.3
2014-Sep-29 00:50 073 18.9
2014-Sep-29 00:40 162 18.9
2014-Sep-29 00:30 225 18.9
2014-Sep-29 00:20 003 18.9
2014-Sep-29 00:10 022 18.9
2014-Sep-29 00:00 049 18.9
2014-Sep-28 23:40 022 18.9
2014-Sep-28 23:30 073 19.4
2014-Sep-28 23:20 031 19.4
2014-Sep-28 23:10 013 19.4
2014-Sep-28 23:00 190 19.4
2014-Sep-28 22:50 328 19.4
2014-Sep-28 22:40 039 19.4
2014-Sep-28 22:30 084 0 gusting 1 19.4
2014-Sep-28 22:20 202 19.4
2014-Sep-28 22:10 158 19.4
2014-Sep-28 22:00 019 19.4